Regional Weather Roundup
Issued by NWS

Home | Current Version | Previous Version | Graphics & Text | Print | Product List | Glossary On
Versions: 1 2 3 4 5 6 7 8 9 10 11 12 13 14 15 16 17 18 19 20 21 22 23 24 25 26 27 28 29 30 31 32 33 34 35 36 37 38 39 40 41 42 43 44 45 46 47 48 49
000
ASUS45 KBOI 040210
RWRID
WEATHER ROUNDUP FOR IDAHO
NATIONAL WEATHER SERVICE BOISE ID
800 PM MDT SUN MAY 03 2015

NOTE: "FAIR" INDICATES FEW OR NO CLOUDS BELOW 12000 FEET
WITH NO SIGNIFICANT WEATHER AND/OR OBSTRUCTIONS TO VISIBILITY

IDZ012-014-040300-
SOUTHWEST IDAHO


CITY           SKY/WX    TMP DP  RH WIND       PRES   REMARKS
BOISE          CLEAR     76  26  15 NW8       29.78S
CALDWELL       CLEAR     73  34  23 NW6       29.79S
MOUNTAIN HOME  CLEAR     76  25  14 NW13      29.78S
$$

IDZ016-017-040300-
SOUTHCENTRAL IDAHO


CITY           SKY/WX    TMP DP  RH WIND       PRES   REMARKS
BURLEY         CLEAR     66  41  40 S8        29.82S
JEROME         CLEAR     72  29  20 SW6       29.83S
TWIN FALLS     CLEAR     74  31  20 CALM      29.84R
$$

IDZ019>023-040300-
SOUTHEAST IDAHO


CITY           SKY/WX    TMP DP  RH WIND       PRES   REMARKS
IDAHO FALLS    RAIN      56  45  66 N10       29.95R
POCATELLO      PTCLDY    67  39  35 S6        29.86S
REXBURG        CLOUDY    60  40  47 N8        29.94R
$$

IDZ006-010-011-018-031-032-040300-
CENTRAL IDAHO MOUNTAINS


CITY           SKY/WX    TMP DP  RH WIND       PRES   REMARKS
MCCALL         CLEAR     64  18  17 VRB3      29.88S
HAILEY         PTCLDY    66  36  32 NW9       29.89S
STANLEY          N/A     61  23  23 NW5       29.94S
SALMON         MOCLDY    64  32  29 SE5       29.83S
CHALLIS        PTCLDY    65  35  33 NE8       29.86S
$$

IDZ002-004-006-007-026-040300-
NORTHERN IDAHO


CITY           SKY/WX    TMP DP  RH WIND       PRES   REMARKS
LEWISTON       CLEAR     72  28  19 W7        29.83S
LOWELL           N/A     60  41  49 CALM      29.82R
COEUR D`ALENE  CLEAR     66  25  20 N3        29.89S
MULLAN PASS    CLEAR     51  20  29 N6        29.96F
$$


USA.gov is the U.S. government's official web portal to all federal, state and local government web resources and services.